Date,TemperatureHighF,TemperatureAvgF,TemperatureLowF,DewpointHighF,DewpointAvgF,DewpointLowF,HumidityHigh,HumidityAvg,HumidityLow,PressureMaxIn,PressureMinIn,WindSpeedMaxMPH,WindSpeedAvgMPH,GustSpeedMaxMPH,PrecipitationSumIn
2013-4-1,76,63,54,58,53,46,97,74,39,30.14,29.98,9,0,9,0.00
2013-4-2,78,64,50,56,50,43,89,64,40,30.17,30.02,13,1,13,0.00
2013-4-3,59,49,45,47,43,37,94,82,54,30.12,30.02,15,1,15,0.32
2013-4-4,52,49,45,50,47,43,96,93,89,30.08,29.97,13,1,13,0.02
2013-4-5,67,54,44,52,47,43,96,79,52,30.23,30.07,11,1,11,0.00
2013-4-6,77,60,43,52,46,41,96,65,33,30.18,30.03,11,1,11,0.00
2013-4-7,77,64,50,59,54,48,95,73,48,30.13,29.99,13,1,13,0.00
2013-4-8,83,69,58,64,60,56,95,75,49,30.06,29.93,14,2,15,0.00
2013-4-9,86,75,68,71,67,64,93,79,56,30.04,29.94,21,2,21,0.00
2013-4-10,84,75,70,71,68,66,88,77,62,29.99,29.81,16,3,16,0.00
2013-4-11,72,60,48,69,58,45,96,91,82,29.89,29.66,16,2,16,0.85
2013-4-12,72,56,42,51,46,41,96,72,37,30.05,29.89,8,0,11,0.00
2013-4-13,80,62,46,56,50,44,95,67,37,30.09,29.94,9,0,9,0.00
2013-4-14,72,62,56,63,57,50,96,84,70,29.96,29.74,14,1,17,0.40
2013-4-15,85,70,56,70,64,55,96,82,56,29.99,29.85,11,1,11,0.01
2013-4-16,85,77,72,72,70,69,93,80,60,30.10,29.99,12,1,12,0.01
2013-4-17,87,77,69,72,69,67,95,79,57,30.12,29.95,15,1,15,0.00
2013-4-18,84,73,55,71,67,53,93,81,63,29.96,29.71,24,3,24,0.48
2013-4-19,58,51,46,53,42,36,94,72,47,30.23,29.89,14,1,14,0.60
2013-4-20,71,54,40,46,42,37,95,67,35,30.32,30.18,10,0,10,0.00
2013-4-21,74,59,45,48,44,39,89,62,33,30.31,30.16,11,0,11,0.00
2013-4-22,79,63,46,58,51,43,91,67,42,30.20,30.05,11,0,11,0.00
2013-4-23,82,70,63,66,62,57,88,77,58,30.12,29.97,10,1,10,0.00
2013-4-24,69,59,51,64,55,46,95,87,76,30.30,30.00,14,1,14,0.74
2013-4-25,73,57,46,49,45,40,92,66,32,30.40,30.28,13,1,13,0.00
2013-4-26,81,64,48,61,52,43,86,66,44,30.36,30.19,10,0,10,0.00
2013-4-27,83,72,64,68,65,60,94,78,59,30.20,30.01,11,1,11,0.00
2013-4-28,75,68,61,69,64,60,95,89,76,30.04,29.97,9,0,11,0.54
2013-4-29,81,69,61,68,62,58,97,81,49,30.04,29.92,11,0,11,0.01
2013-4-30,81,69,58,67,63,56,96,83,60,29.98,29.90,11,0,11,0.07